• In Hungary
  • List of Countries
  • For 7 days
  • Water Temperature
  • Satellite Maps
  • Weather Map
  • News
  • Weather Widgets
  • user-avatar
    Login

    Hourly Weather Asuan

    Today, 19 August, Saturday

    Time Temperature Precipitation Wind Pressure Humidity
    00:00 +37°C° 0 mm 3 mps 739 mmHg 20%
    01:00 +37°C° 0 mm 3 mps 739 mmHg 20%
    02:00 +36°C° 0 mm 2 mps 739 mmHg 25%
    03:00 +35°C° 0 mm 2 mps 739 mmHg 25%
    04:00 +35°C° 0 mm 2 mps 739 mmHg 25%
    05:00 +35°C° 0 mm 2 mps 740 mmHg 25%
    06:00 +36°C° 0 mm 3 mps 740 mmHg 24%
    07:00 +37°C° 0 mm 3 mps 740 mmHg 22%
    08:00 +38°C° 0 mm 4 mps 740 mmHg 20%
    09:00 +41°C° 0 mm 4 mps 740 mmHg 18%
    10:00 +42°C° 0 mm 4 mps 740 mmHg 17%
    11:00 +43°C° 0 mm 3 mps 740 mmHg 15%
    12:00 +44°C° 0 mm 4 mps 740 mmHg 14%
    13:00 +45°C° 0 mm 4 mps 739 mmHg 13%
    14:00 +47°C° 0 mm 5 mps 739 mmHg 12%
    15:00 +46°C° 0 mm 5 mps 739 mmHg 12%
    16:00 +46°C° 0 mm 5 mps 738 mmHg 11%
    17:00 +46°C° 0 mm 6 mps 738 mmHg 11%
    18:00 +45°C° 0 mm 5 mps 738 mmHg 12%
    19:00 +43°C° 0 mm 5 mps 739 mmHg 13%
    20:00 +41°C° 0 mm 5 mps 739 mmHg 14%
    21:00 +41°C° 0 mm 5 mps 739 mmHg 15%
    22:00 +40°C° 0 mm 6 mps 740 mmHg 15%
    23:00 +39°C° 0 mm 6 mps 740 mmHg 16%

    Tomorrow, 20 August, Sunday

    Time Temperature Precipitation Wind Pressure Humidity
    00:00 +39°C° 0 mm 6 mps 740 mmHg 16%
    01:00 +38°C° 0 mm 6 mps 739 mmHg 17%
    02:00 +38°C° 0 mm 6 mps 739 mmHg 17%
    03:00 +36°C° 0 mm 6 mps 739 mmHg 18%
    04:00 +36°C° 0 mm 5 mps 739 mmHg 19%
    05:00 +35°C° 0 mm 5 mps 739 mmHg 20%
    06:00 +36°C° 0 mm 5 mps 740 mmHg 19%
    07:00 +38°C° 0 mm 6 mps 740 mmHg 18%
    08:00 +39°C° 0 mm 6 mps 740 mmHg 16%
    09:00 +41°C° 0 mm 6 mps 740 mmHg 15%
    10:00 +43°C° 0 mm 7 mps 740 mmHg 13%
    11:00 +45°C° 0 mm 7 mps 740 mmHg 12%
    12:00 +46°C° 0 mm 7 mps 739 mmHg 11%
    13:00 +46°C° 0 mm 7 mps 738 mmHg 10%
    14:00 +48°C° 0 mm 8 mps 738 mmHg 10%
    15:00 +48°C° 0 mm 8 mps 738 mmHg 10%
    16:00 +46°C° 0 mm 7 mps 737 mmHg 11%
    17:00 +46°C° 0 mm 7 mps 737 mmHg 11%
    18:00 +44°C° 0 mm 6 mps 737 mmHg 13%
    19:00 +42°C° 0 mm 6 mps 738 mmHg 14%
    20:00 +41°C° 0 mm 5 mps 738 mmHg 16%
    21:00 +40°C° 0 mm 5 mps 738 mmHg 17%
    22:00 +39°C° 0 mm 6 mps 739 mmHg 18%
    23:00 +39°C° 0 mm 6 mps 739 mmHg 19%

    Day after tomorrow, 21 August, Monday

    Time Temperature Precipitation Wind Pressure Humidity
    00:00 +38°C° 0 mm 6 mps 738 mmHg 20%
    01:00 +38°C° 0 mm 6 mps 738 mmHg 22%
    02:00 +36°C° 0 mm 6 mps 738 mmHg 23%
    03:00 +35°C° 0 mm 6 mps 738 mmHg 24%
    04:00 +35°C° 0 mm 6 mps 738 mmHg 25%
    05:00 +34°C° 0 mm 5 mps 738 mmHg 26%
    06:00 +36°C° 0 mm 6 mps 738 mmHg 24%
    07:00 +38°C° 0 mm 7 mps 739 mmHg 23%
    08:00 +39°C° 0 mm 8 mps 739 mmHg 21%
    09:00 +40°C° 0 mm 8 mps 739 mmHg 19%
    10:00 +43°C° 0 mm 8 mps 739 mmHg 16%
    11:00 +45°C° 0 mm 8 mps 739 mmHg 14%
    12:00 +45°C° 0 mm 7 mps 738 mmHg 13%
    13:00 +46°C° 0 mm 7 mps 738 mmHg 12%
    14:00 +47°C° 0 mm 7 mps 737 mmHg 12%
    15:00 +46°C° 0 mm 7 mps 737 mmHg 12%
    16:00 +46°C° 0 mm 7 mps 737 mmHg 12%
    17:00 +46°C° 0 mm 7 mps 736 mmHg 12%
    18:00 +45°C° 0 mm 6 mps 737 mmHg 14%
    19:00 +42°C° 0 mm 6 mps 737 mmHg 15%
    20:00 +41°C° 0 mm 5 mps 738 mmHg 16%
    21:00 +40°C° 0 mm 5 mps 738 mmHg 17%
    22:00 +40°C° 0 mm 5 mps 738 mmHg 17%
    23:00 +39°C° 0 mm 5 mps 738 mmHg 18%

    22 August, Tuesday

    Time Temperature Precipitation Wind Pressure Humidity
    00:00 +38°C° 0 mm 6 mps 738 mmHg 19%
    01:00 +38°C° 0 mm 6 mps 738 mmHg 20%
    02:00 +36°C° 0 mm 6 mps 738 mmHg 22%
    03:00 +36°C° 0 mm 6 mps 738 mmHg 23%
    04:00 +35°C° 0 mm 6 mps 738 mmHg 24%
    05:00 +35°C° 0 mm 5 mps 738 mmHg 25%
    06:00 +36°C° 0 mm 6 mps 739 mmHg 24%
    07:00 +38°C° 0 mm 7 mps 739 mmHg 22%
    08:00 +39°C° 0 mm 8 mps 739 mmHg 21%
    09:00 +40°C° 0 mm 7 mps 739 mmHg 19%
    10:00 +43°C° 0 mm 7 mps 739 mmHg 17%
    11:00 +44°C° 0 mm 7 mps 739 mmHg 15%
    12:00 +45°C° 0 mm 7 mps 738 mmHg 14%
    13:00 +46°C° 0 mm 7 mps 737 mmHg 13%
    14:00 +46°C° 0 mm 7 mps 737 mmHg 12%
    15:00 +46°C° 0 mm 7 mps 736 mmHg 12%
    16:00 +46°C° 0 mm 7 mps 736 mmHg 12%
    17:00 +45°C° 0 mm 7 mps 736 mmHg 12%
    18:00 +44°C° 0 mm 6 mps 736 mmHg 14%
    19:00 +42°C° 0 mm 6 mps 737 mmHg 15%
    20:00 +40°C° 0 mm 6 mps 737 mmHg 16%
    21:00 +40°C° 0 mm 6 mps 737 mmHg 17%
    22:00 +39°C° 0 mm 6 mps 738 mmHg 18%
    23:00 +38°C° 0 mm 6 mps 738 mmHg 19%

    23 August, Wednesday

    Time Temperature Precipitation Wind Pressure Humidity
    00:00 +38°C° 0 mm 6 mps 737 mmHg 20%
    01:00 +36°C° 0 mm 6 mps 737 mmHg 20%
    02:00 +35°C° 0 mm 6 mps 737 mmHg 21%
    03:00 +35°C° 0 mm 6 mps 737 mmHg 22%
    04:00 +34°C° 0 mm 6 mps 737 mmHg 23%
    05:00 +34°C° 0 mm 6 mps 737 mmHg 23%
    06:00 +34°C° 0 mm 6 mps 738 mmHg 23%
    07:00 +35°C° 0 mm 7 mps 738 mmHg 22%
    08:00 +36°C° 0 mm 7 mps 738 mmHg 22%
    09:00 +39°C° 0 mm 6 mps 738 mmHg 20%
    10:00 +40°C° 0 mm 6 mps 738 mmHg 18%
    11:00 +42°C° 0 mm 5 mps 738 mmHg 16%
    12:00 +43°C° 0 mm 5 mps 737 mmHg 15%
    13:00 +45°C° 0 mm 5 mps 736 mmHg 14%
    14:00 +46°C° 0 mm 5 mps 736 mmHg 13%
    15:00 +46°C° 0 mm 6 mps 736 mmHg 13%
    16:00 +46°C° 0 mm 6 mps 736 mmHg 13%
    17:00 +46°C° 0 mm 6 mps 735 mmHg 13%
    18:00 +44°C° 0 mm 6 mps 736 mmHg 14%
    19:00 +42°C° 0 mm 5 mps 736 mmHg 15%
    20:00 +41°C° 0 mm 5 mps 737 mmHg 16%
    21:00 +40°C° 0 mm 6 mps 737 mmHg 17%
    22:00 +39°C° 0 mm 6 mps 737 mmHg 17%
    23:00 +38°C° 0 mm 6 mps 737 mmHg 18%

    24 August, Thursday

    Time Temperature Precipitation Wind Pressure Humidity
    00:00 +36°C° 0 mm 6 mps 736 mmHg 19%
    01:00 +36°C° 0 mm 6 mps 736 mmHg 19%
    02:00 +35°C° 0 mm 6 mps 736 mmHg 20%
    03:00 +35°C° 0 mm 5 mps 736 mmHg 21%
    04:00 +34°C° 0 mm 5 mps 736 mmHg 23%
    05:00 +34°C° 0 mm 4 mps 736 mmHg 24%
    06:00 +35°C° 0 mm 5 mps 737 mmHg 23%
    07:00 +36°C° 0 mm 5 mps 737 mmHg 22%
    08:00 +38°C° 0 mm 6 mps 737 mmHg 21%
    09:00 +40°C° 0 mm 5 mps 737 mmHg 19%
    10:00 +42°C° 0 mm 5 mps 737 mmHg 17%
    11:00 +44°C° 0 mm 4 mps 737 mmHg 15%
    12:00 +46°C° 0 mm 5 mps 736 mmHg 14%
    13:00 +47°C° 0 mm 5 mps 735 mmHg 14%
    14:00 +49°C° 0 mm 5 mps 735 mmHg 13%
    15:00 +48°C° 0 mm 5 mps 735 mmHg 13%
    16:00 +48°C° 0 mm 5 mps 735 mmHg 13%
    17:00 +48°C° 0 mm 6 mps 735 mmHg 13%
    18:00 +47°C° 0 mm 6 mps 735 mmHg 14%
    19:00 +45°C° 0 mm 7 mps 735 mmHg 16%
    20:00 +44°C° 0 mm 7 mps 735 mmHg 17%
    21:00 +43°C° 0 mm 7 mps 736 mmHg 19%
    22:00 +41°C° 0 mm 6 mps 736 mmHg 20%
    23:00 +40°C° 0 mm 6 mps 736 mmHg 22%
    Show more